Regional Weather Roundup
Issued by NWS

Home | Current Version | Previous Version | Text Only | Print | Product List | Glossary Off
Versions: 1 2 3 4 5 6 7 8 9 10 11 12 13 14 15 16 17 18 19 20 21 22 23 24 25 26 27

000
ASUS45 KSLC 240510
RWRUT

UTAH REGIONAL WEATHER ROUNDUP
NATIONAL WEATHER SERVICE SALT LAKE CITY UT
1100 PM MDT THU OCT 23 2014

UTZ001>011-023>025-240600-

NORTHERN UTAH

CITY           SKY/WX    TMP DP  RH WIND       PRES   REMARKS
BRIGHAM CITY   CLOUDY    53  36  51 CALM      30.07R
HILL AFB       CLOUDY    56  34  44 SE3       30.08R
LOGAN          CLEAR     48  38  68 S5        30.08R
OGDEN          CLOUDY    53  38  56 CALM      30.06R
PROVO AIRPORT  PTCLDY    54  36  50 SE10      30.11R
SALT LAKE CITY CLOUDY    55  41  59 NW3       30.05R
VERNAL         MOCLDY    47  36  65 W3        30.20R
WENDOVER       CLOUDY    54  34  47 CALM      30.08R
HEBER CITY     PTCLDY    48  30  49 S3        30.15S
WEST JORDAN    CLEAR     66  39  37 S15G23    30.08R

$$

UTZ012>022-026-027-240600-

SOUTHERN/CENTRAL UTAH

CITY           SKY/WX    TMP DP  RH WIND       PRES   REMARKS
BLANDING       MOCLDY    48  31  50 N6        30.35S
BRYCE CANYON   MOCLDY    35  27  72 SW5       30.36R WCI  31
CEDAR CITY     MOCLDY    49  29  46 NE5       30.21R
DELTA          MOCLDY    62  26  25 S13       30.13R
HANKSVILLE       N/A     55  32  41 CALM      30.18S
MILFORD        MOCLDY    60  30  32 S12       30.17R
MOAB/CYNLANDS  CLEAR     49  31  49 W3        30.17R
PRICE          PTCLDY    50  34  54 NE3       30.23S
ST GEORGE      PTCLDY    64  30  27 SE6       30.11S
KANAB            N/A     48  32  53 NE6       30.25R

$$

REGIONAL REPORTS     COLORADO/ARIZONA

CITY           SKY/WX    TMP DP  RH WIND       PRES   REMARKS
CRAIG, CO      PTCLDY    40  33  76 SE6       30.24R
GRAND JUNCTION PTCLDY    49  37  63 E7        30.21R
RIFLE          MOCLDY    46  39  76 CALM      30.26R
MONTROSE       PTCLDY    49  36  61 SE9       30.29R
CORTEZ         CLEAR     40  31  70 E5        30.32R
PAGE, AZ       MOCLDY    63  33  32 CALM      30.18R
GRAND CANYON   PTCLDY    36  25  64 CALM      30.33R
KINGMAN        CLEAR     59  40  49 SE9       30.12S
FLAGSTAFF      CLEAR     40  32  73 CALM      30.36S

$$

REGIONAL REPORTS    NEVADA/IDAHO/WYOMING

CITY           SKY/WX    TMP DP  RH WIND       PRES   REMARKS
LAS VEGAS, NV  PTCLDY    73  36  25 SW9       29.99R
ELY            MOCLDY    54  25  32 S15       30.18R
ELKO           CLEAR     47  20  34 CALM      30.08R
POCATELLO, ID  CLEAR     43  34  70 S6        30.13R
BURLEY         PTCLDY    47  38  71 E5        30.09F
EVANSTON, WY   PTCLDY    53  23  31 SW13      30.19S
ROCK SPRINGS   MOCLDY    50  24  36 S5        30.19R
KEMMERER       MOCLDY    45  23  42 CALM      30.20S

$$



USA.gov is the U.S. government's official web portal to all federal, state and local government web resources and services.